www.pogodaiklimat.ru

Погода и климат >> Архив погоды >> Кувейт >> Эль-Джахра


ПОГОДА в Эль-Джахра

  • Прогноз погоды в Эль-Джахра
  • Монитор погоды в Эль-Джахра

АРХИВ ПОГОДЫ в Эль-Джахра

Время (UTC), дата Ветер
(напр.,м/с)
 
Видим.   Явления Облачность Т
(С)
Тd
(С)
f
(%)
Тe
(С)
Тes
(С)
Комфортность P
(гПа)
Po
(гПа)
Тmin
(С)
Tmax
(С)
R
(мм)
R24
(мм)
S
(см)
18 11.07 З 3-5
{11}
н/о н/о +40.7 -1.9 7 +37 +37 очень
жарко
997.7 991.7
21 11.07 З 2-4
{6}
н/о н/о +35.4 -1.4 10 +32 +32 жарко 997.6 991.5 +32.1 +46.7
00 12.07 З 3-4
{6}
н/о н/о +33.6 +1.0 13 +30 +30 жарко 997.0 990.9
03 12.07 З 5-7
{7}
н/о н/о +34.2 +0.3 12 +31 +31 жарко 998.2 992.1
06 12.07 З 4-7
{9}
н/о н/о +42.9 -0.4 7 +39 +39 очень
жарко
999.0 993.1
09 12.07 З 3-11
{11}
н/о н/о +45.8 -1.5 5 +42 +42 опасность
перегрева
998.4 992.5
12 12.07 З 4-10
{12}
н/о н/о +47.8 -2.3 5 +44 +44 опасность
перегрева
996.8 991.0
15 12.07 СЗ 3-9
{11}
н/о н/о +44.7 -0.2 6 +41 +41 опасность
перегрева
997.0 991.1
18 12.07 СЗ 3-6
{11}
н/о н/о +41.4 +1.3 8 +38 +38 очень
жарко
998.9 992.9
21 12.07 З 4-7
{10}
н/о н/о +38.1 +2.9 11 +35 +35 очень
жарко
998.8 992.8 +32.7 +48.3
00 13.07 З 3-5
{10}
н/о н/о +34.6 +3.1 14 +32 +32 жарко 998.5 992.4
03 13.07 СЗ 3-6
{8}
н/о н/о +34.8 +2.2 13 +32 +32 жарко 999.5 993.4
06 13.07 СЗ 4-8
{9}
н/о н/о +42.2 -0.1 7 +38 +38 очень
жарко
999.8 993.9
09 13.07 0 н/о н/о +45.5 -1.2 6 999.1 993.2
12 13.07 СЗ 3-8 н/о н/о +46.2 -1.1 6 +42 +42 опасность
перегрева
997.7 991.8
15 13.07 СЗ 3-7
{12}
н/о н/о +44.1 +0.1 7 +40 +40 очень
жарко
997.8 991.9
18 13.07 СЗ 3-7
{12}
н/о н/о +40.3 -0.1 8 +36 +36 очень
жарко
999.9 993.9
21 13.07 З 3-7
{7}
н/о н/о +37.3 +1.0 10 +34 +34 очень
жарко
1000.2 994.2 +33.6 +47.1
00 14.07 З 3-5
{7}
н/о н/о +32.8 -0.6 12 +29 +29 жарко 999.7 993.6
03 14.07 З 3-5
{7}
н/о н/о +32.0 -1.8 11 +28 +28 жарко 1000.9 994.8
06 14.07 СЗ 2-5
{7}
н/о н/о +39.3 +1.9 10 +36 +36 очень
жарко
1001.7 995.7
09 14.07 З 4-8
{10}
н/о н/о +43.5 -0.4 7 +40 +40 очень
жарко
1000.6 994.7
12 14.07 З 6-11
{12}
н/о н/о +44.8 +1.0 7 +41 +41 опасность
перегрева
998.8 992.9
15 14.07 СЗ 4-9
{11}
н/о н/о +42.7 +1.9 8 +39 +39 очень
жарко
998.7 992.8
18 14.07 З 3-6
{11}
н/о н/о +38.8 +1.8 10 +35 +35 очень
жарко
1000.5 994.5
21 14.07 З 2-5
{7}
н/о н/о +35.7 +3.8 14 +33 +33 жарко 999.9 993.8 +31.4 +45.2
00 15.07 З 2-3
{7}
н/о н/о +33.4 +6.3 19 +31 +31 жарко 999.5 993.4
03 15.07 З 3-6
{7}
н/о н/о +33.2 +5.4 18 +31 +31 жарко 999.8 993.7
06 15.07 СЗ 3-6
{9}
н/о н/о +40.5 +3.4 10 +37 +37 очень
жарко
1000.5 994.5
09 15.07 СЗ 6-12
{13}
н/о н/о +43.4 -0.5 7 +40 +40 очень
жарко
999.4 993.5
12 15.07 СЗ 4-9
{13}
н/о н/о +45.0 -0.6 6 +41 +41 опасность
перегрева
997.5 991.6
15 15.07 СЗ 4-8
{13}
н/о н/о +43.3 -0.4 7 +40 +40 очень
жарко
997.1 991.2
18 15.07 З 3-4
{13}
н/о н/о +39.0 +0.8 9 +35 +35 очень
жарко
998.5 992.5
21 15.07 З 5-9
{9}
н/о н/о +36.3 +2.2 12 +33 +33 жарко 997.7 991.7 +32.0 +45.5
00 16.07 З 4-8
{10}
н/о н/о +34.1 +2.0 13 +31 +31 жарко 996.9 990.8
03 16.07 З 3-5
{9}
н/о н/о +33.2 +1.8 14 +30 +30 жарко 997.8 991.7
06 16.07 СЗ 4-9
{10}
н/о н/о +40.6 +0.7 8 +37 +37 очень
жарко
998.2 992.2
09 16.07 СЗ 6-14
{14}
н/о н/о +45.2 -2.0 5 +41 +41 опасность
перегрева
997.0 991.1
12 16.07 СЗ 4-11
{16}
н/о н/о +46.2 -3.6 5 +42 +42 опасность
перегрева
996.4 990.6
15 16.07 СЗ 4-9
{13}
н/о н/о +43.8 -3.0 5 +40 +40 очень
жарко
996.4 990.5
18 16.07 СЗ 4-8
{13}
н/о н/о +39.4 +2.3 10 +36 +36 очень
жарко
998.6 992.6
21 16.07 З 4-7
{10}
н/о н/о +36.1 +4.4 14 +33 +33 жарко 998.6 992.5 +32.3 +46.7
00 17.07 З 4-9
{10}
н/о н/о +33.6 +4.8 17 +31 +31 жарко 998.1 992.0
03 17.07 З 4-7
{8}
н/о н/о +33.2 +4.0 16 +31 +31 жарко 999.4 993.3
06 17.07 СЗ 3-7
{8}
н/о н/о +38.5 +4.1 12 +35 +35 очень
жарко
1000.3 994.3
09 17.07 З 6-11
{13}
н/о н/о +42.4 +3.4 9 +39 +39 очень
жарко
999.8 993.9
12 17.07 СЗ 6-12
{15}
н/о н/о +43.4 +2.9 9 +40 +40 очень
жарко
998.4 992.5
15 17.07 З 4-9
{14}
н/о н/о +41.8 +1.9 9 +38 +38 очень
жарко
998.8 992.9
18 17.07 З 4-7
{14}
н/о н/о +38.2 +3.8 12 +35 +35 очень
жарко
1000.2 994.2
21 17.07 З 3-5
{7}
н/о н/о +35.0 +4.7 15 +32 +32 жарко 999.8 993.7 +32.4 +44.0
00 18.07 З 3-5
{7}
н/о н/о +32.0 +5.9 20 +30 +30 жарко 999.3 993.2
03 18.07 З 4-7
{7}
н/о н/о +31.5 +5.0 19 +29 +29 жарко 999.7 993.6
06 18.07 З 5-11
{13}
н/о н/о +39.1 +4.5 12 +36 +36 очень
жарко
999.4 993.4
09 18.07 ЮЗ 4-12
{14}
н/о н/о +44.7 +1.1 7 +41 +41 опасность
перегрева
998.2 992.3
12 18.07 СЗ 7-14
{20}
н/о н/о +45.7 +1.3 7 +42 +42 опасность
перегрева
996.7 990.8
15 18.07 СЗ 4-12
{16}
н/о н/о +44.5 +2.5 8 +41 +41 опасность
перегрева
997.3 991.4

 

Местоположение метеостанции Эль-Джахра (Кувейт): широта 29.32 долгота 47.67 высота над уровнем моря 55 м.

В архиве по умолчанию представлена погода в Эль-Джахра за последнюю неделю. Архивные данные за месяц целиком и за предыдущие месяцы, начиная с января 2011 года, Вы можете получить, выбрав интересующий диапазон дат из раскрывающегося списка и нажав кнопку "Ввод!".


*Определитесь, кто Вы:
робот инопланетянин человек

Внимание! Время в таблицах - всемирное. Для получения местного времени необходимо прибавить поправку, которая равна 3 ч.

Смотрите также архив погоды в соседних городах и на ближайших метеорологических станциях:

Погода в Сулайбии (Кувейт) (7 км)
Погода на Экспериментальной ферме (Кувейт) (26 км)
Погода в Минагише (Кувейт) (31 км)
Погода в Эль-Кувейте (Кувейт) (31 км)
Погода на Метеостанции Jal Aliyah (Кувейт) (33 км)
Погода в Кувейт Сити (Кувейт) (37 км)
Погода в Аль-Шуаиба (Кувейт) (42 км)
Погода на Метеостанции Sabriyah (Кувейт) (51 км)
Погода Остров Файлака (Кувейт) (61 км)
Погода на Метеостанции Mintribah (Кувейт) (63 км)

Пояснения к столбцам:

Ветер - указаны скорость ветра в м/с - средняя за 10 мин, порывы в срок и между сроками (в фигурных скобках) и направление, откуда дует ветер: С - северный, СВ - северо-восточный, В - восточный, ЮВ - юго-восточный, Ю - южный, ЮЗ - юго-западный, З - западный, СЗ - северо-западный.
Видимость - горизонтальная дальность видимости в метрах или километрах. При видимости от 1 до 10 км при отсутствии осадков обычно наблюдается дымка, при ухудшении видимости до 1 км и менее - туман. В сухую погоду видимость может ухудшаться дымом, пылью или мглою.
Явления - указаны атмосферные явления, наблюдавшиеся в срок или в последний час перед сроком; фигурными скобками обозначены явления, наблюдавшиеся между сроками (за 1-3 часа до срока); квадратными скобками обозначены град или гололедные отложения с указанием их диаметра в мм.
Облачность - указаны через наклонную черту общая и нижняя облачность в баллах и высота нижней границы облаков в метрах; квадратными скобками обозначены формы облаков: Ci - перистые, Cs - перисто-слоистые, Cc - перисто-кучевые, Ac - высококучевые, As - высокослоистые, Sc - слоисто-кучевые, Ns - слоисто-дождевые, Cu - кучевые, Cb - кучево-дождевые. Подробнее классификацию облаков см. в Атласе облаков (PDF).
T - Температура воздуха - температура, измеренная на высоте 2 м над землей.
Td - Температура точки росы - температура, при понижении до которой содержащийся в воздухе водяной пар достигнет насыщения.
f - Относительная влажность воздуха - влажноcть воздуха, измеренная на высоте 2 м над землей.
Te - Эффективная температура - температура, которую ощущает одетый по сезону человек в тени. Характеристика душности погоды. При расчете учитывается влияние влажности воздуха и скорости ветра на теплоощущения человека.
Tes - Эффективная температура на солнце - температура, которую ощущает человек, с поправкой на солнечный нагрев. Характеристика знойности погоды. Зависит от высоты солнца над горизонтом, облачности и скорости ветра. Ночью, в пасмурную погоду, а также при ветре 12 м/с и более поправка равна нулю.
P - Атмосферное давление - приведенное к уровню моря атмосферное давление.
Po - Атмосферное давление - измеренное на уровне метеостанции атмосферное давление.
Tmin - Минимальная температура - минимум температуры воздуха на высоте 2 м над землей.
Tmax - Максимальная температура - максимум температуры воздуха на высоте 2 м над землей.
R - Количество осадков - Количество выпавших осадков за период времени, мм. При наведении курсора мыши на число - период времени, за который выпало указанное количество осадков.
R24 - Количество осадков - Количество выпавших осадков за 24 часа, мм.
S - Снежный покров - Высота снежного покрова, см. При наведении курсора мыши на число - состояние снежного покрова и степень покрытия местности в баллах.